Station Historical Data
Daily Summary for January 29, 2017 Units:  Metric    English   Both
« Previous Day
Next Day »
Daily Weekly Monthly Yearly Custom
  High: Low: Average:
Temperature: -1.8 °C -7.7 °C -3.4 °C
Dew Point: -2.9 °C -10.4 °C -7.4 °C
Humidity: 92% 58% 75%
Wind Speed: 19.3km/h 0km/h 7.4km/h
Wind Gust: 29km/h - -
Wind- - West
Pressure: 1009 hPa 1002.9 hPa -
Precipitation: 0 mm    
Historical Graphs
 
 
Tabular Data for January 29, 2017
Time Temperature Dew Point Pressure Wind Wind Speed Wind Gust Humidity Rainfall Rate (Hourly)
00:04 -1.8 °C -2.9 °C 1002.9 hPa West 8 km/h 17.7 km/h 92% 0 mm
00:09 -1.8 °C -2.9 °C 1002.9 hPa West 9.7 km/h 20.9 km/h 92% 0 mm
00:14 -1.8 °C -3.1 °C 1002.9 hPa WNW 8 km/h 14.5 km/h 91% 0 mm
00:19 -1.8 °C -3.1 °C 1002.9 hPa WSW 8 km/h 16.1 km/h 91% 0 mm
00:24 -1.9 °C -3.2 °C 1002.9 hPa West 8 km/h 19.3 km/h 91% 0 mm
00:29 -1.9 °C -3.2 °C 1002.9 hPa WSW 6.4 km/h 16.1 km/h 91% 0 mm
00:34 -1.9 °C -3.3 °C 1002.9 hPa WSW 12.9 km/h 16.1 km/h 90% 0 mm
00:39 -1.9 °C -3.4 °C 1002.9 hPa West 6.4 km/h 14.5 km/h 90% 0 mm
00:44 -1.9 °C -3.5 °C 1002.9 hPa WSW 8 km/h 14.5 km/h 89% 0 mm
00:49 -2 °C -3.6 °C 1002.9 hPa West 8 km/h 16.1 km/h 89% 0 mm
00:54 -2 °C -3.6 °C 1002.9 hPa West 8 km/h 20.9 km/h 89% 0 mm
00:59 -1.9 °C -3.5 °C 1002.9 hPa West 8 km/h 20.9 km/h 89% 0 mm
01:05 -2 °C -3.6 °C 1002.9 hPa WSW 8 km/h 19.3 km/h 89% 0 mm
01:10 -2.1 °C -3.6 °C 1002.9 hPa WSW 9.7 km/h 19.3 km/h 89% 0 mm
01:15 -2.1 °C -3.6 °C 1002.9 hPa WSW 9.7 km/h 17.7 km/h 89% 0 mm
01:20 -2.1 °C -3.8 °C 1002.9 hPa SW 3.2 km/h 12.9 km/h 88% 0 mm
01:25 -2.1 °C -3.8 °C 1002.9 hPa West 8 km/h 20.9 km/h 88% 0 mm
01:30 -2.1 °C -3.8 °C 1002.9 hPa WSW 9.7 km/h 14.5 km/h 88% 0 mm
01:35 -2.2 °C -3.7 °C 1002.9 hPa West 9.7 km/h 16.1 km/h 89% 0 mm
01:40 -2.2 °C -3.9 °C 1002.9 hPa WNW 4.8 km/h 14.5 km/h 88% 0 mm
01:45 -2.2 °C -3.9 °C 1002.9 hPa West 9.7 km/h 12.9 km/h 88% 0 mm
01:50 -2.2 °C -3.9 °C 1003.3 hPa West 8 km/h 20.9 km/h 88% 0 mm
01:55 -2.3 °C -4 °C 1003.3 hPa West 8 km/h 20.9 km/h 88% 0 mm
02:00 -2.3 °C -4 °C 1003.3 hPa WSW 9.7 km/h 16.1 km/h 88% 0 mm
02:05 -2.3 °C -4.2 °C 1003.3 hPa WSW 4.8 km/h 16.1 km/h 87% 0 mm
02:10 -2.3 °C -4.2 °C 1003.3 hPa SW 6.4 km/h 14.5 km/h 87% 0 mm
02:15 -2.3 °C -4.2 °C 1003.3 hPa West 6.4 km/h 14.5 km/h 87% 0 mm
02:20 -2.4 °C -4.3 °C 1003.3 hPa West 6.4 km/h 17.7 km/h 87% 0 mm
02:25 -2.4 °C -4.3 °C 1003.3 hPa West 6.4 km/h 17.7 km/h 87% 0 mm
02:30 -2.4 °C -4.3 °C 1003.3 hPa West 6.4 km/h 14.5 km/h 87% 0 mm
02:35 -2.4 °C -4.3 °C 1003.3 hPa West 3.2 km/h 16.1 km/h 87% 0 mm
02:40 -2.4 °C -4.4 °C 1003.3 hPa WSW 6.4 km/h 14.5 km/h 86% 0 mm
02:45 -2.5 °C -4.5 °C 1003.3 hPa West 6.4 km/h 14.5 km/h 86% 0 mm
02:50 -2.5 °C -4.5 °C 1003.3 hPa West 6.4 km/h 14.5 km/h 86% 0 mm
02:55 -2.6 °C -4.6 °C 1003.6 hPa West 3.2 km/h 12.9 km/h 86% 0 mm
03:00 -2.6 °C -4.7 °C 1003.6 hPa SW 6.4 km/h 16.1 km/h 85% 0 mm
03:05 -2.6 °C -4.7 °C 1003.6 hPa WSW 8 km/h 12.9 km/h 85% 0 mm
03:15 -2.6 °C -4.6 °C 1003.6 hPa West 11.3 km/h 14.5 km/h 86% 0 mm
03:20 -2.6 °C -4.7 °C 1003.6 hPa WSW 6.4 km/h 17.7 km/h 85% 0 mm
03:25 -2.6 °C -4.7 °C 1003.6 hPa WSW 8 km/h 17.7 km/h 85% 0 mm
03:30 -2.6 °C -4.8 °C 1003.6 hPa WSW 8 km/h 17.7 km/h 85% 0 mm
03:35 -2.6 °C -4.8 °C 1003.6 hPa WSW 3.2 km/h 17.7 km/h 85% 0 mm
03:40 -2.6 °C -4.7 °C 1003.6 hPa West 4.8 km/h 17.7 km/h 85% 0 mm
03:45 -2.6 °C -4.9 °C 1003.6 hPa WNW 9.7 km/h 16.1 km/h 84% 0 mm
03:50 -2.6 °C -4.9 °C 1003.6 hPa WNW 9.7 km/h 16.1 km/h 84% 0 mm
03:55 -2.6 °C -4.9 °C 1003.9 hPa West 8 km/h 16.1 km/h 84% 0 mm
04:00 -2.6 °C -4.9 °C 1003.9 hPa West 8 km/h 17.7 km/h 84% 0 mm
04:05 -2.6 °C -4.9 °C 1003.9 hPa West 8 km/h 17.7 km/h 84% 0 mm
04:10 -2.5 °C -4.8 °C 1003.9 hPa WSW 9.7 km/h 19.3 km/h 84% 0 mm
04:15 -2.6 °C -5.1 °C 1003.9 hPa West 9.7 km/h 19.3 km/h 83% 0 mm
04:20 -2.6 °C -5.1 °C 1003.9 hPa WNW 12.9 km/h 17.7 km/h 83% 0 mm
04:25 -2.6 °C -4.9 °C 1003.9 hPa West 9.7 km/h 17.7 km/h 84% 0 mm
04:30 -2.6 °C -4.9 °C 1003.9 hPa West 9.7 km/h 17.7 km/h 84% 0 mm
04:35 -2.7 °C -5 °C 1004.3 hPa West 8 km/h 17.7 km/h 84% 0 mm
04:39 -2.7 °C -5 °C 1004.3 hPa West 6.4 km/h 14.5 km/h 84% 0 mm
04:45 -2.8 °C -5.1 °C 1004.3 hPa SW 6.4 km/h 11.3 km/h 84% 0 mm
04:50 -2.8 °C -4.9 °C 1004.3 hPa WSW 4.8 km/h 12.9 km/h 85% 0 mm
04:54 -2.8 °C -5 °C 1004.3 hPa West 6.4 km/h 12.9 km/h 85% 0 mm
05:00 -2.8 °C -5 °C 1004.6 hPa West 6.4 km/h 12.9 km/h 85% 0 mm
05:05 -2.9 °C -5.1 °C 1004.6 hPa SW 11.3 km/h 14.5 km/h 85% 0 mm
05:10 -2.9 °C -5.1 °C 1004.6 hPa WSW 16.1 km/h 19.3 km/h 85% 0 mm
05:15 -2.9 °C -5.3 °C 1004.6 hPa WNW 19.3 km/h 22.5 km/h 84% 0 mm
05:20 -3.1 °C -5.6 °C 1004.6 hPa NW 8 km/h 19.3 km/h 83% 0 mm
05:25 -3.1 °C -5.7 °C 1004.3 hPa West 4.8 km/h 17.7 km/h 82% 0 mm
05:30 -3.2 °C -5.8 °C 1004.6 hPa WNW 8 km/h 17.7 km/h 82% 0 mm
05:35 -3.2 °C -5.8 °C 1004.6 hPa WNW 8 km/h 14.5 km/h 82% 0 mm
05:40 -3.3 °C -5.9 °C 1004.6 hPa West 8 km/h 14.5 km/h 82% 0 mm
05:45 -3.3 °C -5.9 °C 1004.6 hPa West 8 km/h 17.7 km/h 82% 0 mm
05:50 -3.3 °C -5.9 °C 1004.6 hPa West 8 km/h 17.7 km/h 82% 0 mm
05:54 -3.3 °C -5.9 °C 1004.6 hPa WNW 12.9 km/h 14.5 km/h 82% 0 mm
05:59 -3.3 °C -5.9 °C 1004.6 hPa West 6.4 km/h 14.5 km/h 82% 0 mm
06:05 -3.3 °C -5.9 °C 1004.6 hPa West 6.4 km/h 8 km/h 82% 0 mm
06:15 -3.4 °C -6.2 °C 1004.6 hPa West 8 km/h 17.7 km/h 81% 0 mm
06:20 -3.4 °C -6.3 °C 1004.6 hPa SW 9.7 km/h 24.1 km/h 80% 0 mm
06:25 -3.4 °C -6.5 °C 1004.6 hPa West 17.7 km/h 17.7 km/h 79% 0 mm
06:30 -3.4 °C -6.8 °C 1004.6 hPa SSW 16.1 km/h 17.7 km/h 77% 0 mm
06:34 -3.4 °C -6.9 °C 1004.6 hPa West 9.7 km/h 19.3 km/h 77% 0 mm
06:50 -3.6 °C -7.2 °C 1005 hPa West 9.7 km/h 22.5 km/h 76% 0 mm
06:55 -3.6 °C -7.2 °C 1005 hPa West 9.7 km/h 20.9 km/h 76% 0 mm
06:59 -3.6 °C -7.4 °C 1004.6 hPa WNW 16.1 km/h 17.7 km/h 75% 0 mm
07:04 -3.7 °C -7.4 °C 1005 hPa West 8 km/h 17.7 km/h 75% 0 mm
07:09 -3.7 °C -7.4 °C 1005 hPa NW 6.4 km/h 17.7 km/h 75% 0 mm
07:15 -3.7 °C -7.5 °C 1005 hPa WNW 14.5 km/h 17.7 km/h 75% 0 mm
07:20 -3.8 °C -7.4 °C 1005 hPa West 4.8 km/h 14.5 km/h 76% 0 mm
07:25 -3.7 °C -7.5 °C 1005 hPa WNW 8 km/h 14.5 km/h 75% 0 mm
07:30 -3.8 °C -7.4 °C 1005 hPa West 14.5 km/h 16.1 km/h 76% 0 mm
07:35 -3.8 °C -7.4 °C 1005.3 hPa WNW 4.8 km/h 14.5 km/h 76% 0 mm
07:39 -3.8 °C -7.4 °C 1005.3 hPa West 8 km/h 17.7 km/h 76% 0 mm
07:45 -3.8 °C -7.4 °C 1005.3 hPa West 8 km/h 17.7 km/h 76% 0 mm
07:50 -3.8 °C -7.4 °C 1005.3 hPa West 8 km/h 16.1 km/h 76% 0 mm
07:54 -3.8 °C -7.3 °C 1005.3 hPa WNW 9.7 km/h 16.1 km/h 77% 0 mm
07:59 -3.8 °C -7.3 °C 1005.3 hPa West 4.8 km/h 9.7 km/h 77% 0 mm
08:04 -3.9 °C -7.3 °C 1005.6 hPa West 9.7 km/h 12.9 km/h 77% 0 mm
08:09 -3.8 °C -7.3 °C 1005.6 hPa West 6.4 km/h 16.1 km/h 77% 0 mm
08:14 -3.8 °C -7.3 °C 1005.3 hPa West 11.3 km/h 16.1 km/h 77% 0 mm
08:19 -3.8 °C -7.3 °C 1005.3 hPa WNW 6.4 km/h 17.7 km/h 77% 0 mm
08:25 -3.8 °C -7.4 °C 1005.6 hPa West 6.4 km/h 17.7 km/h 76% 0 mm
08:30 -3.8 °C -7.2 °C 1005.6 hPa West 4.8 km/h 16.1 km/h 77% 0 mm
08:35 -3.7 °C -7.2 °C 1005.6 hPa West 11.3 km/h 14.5 km/h 77% 0 mm
08:40 -3.7 °C -7.2 °C 1005.6 hPa West 9.7 km/h 12.9 km/h 77% 0 mm
08:44 -3.7 °C -6.9 °C 1005.6 hPa West 6.4 km/h 12.9 km/h 78% 0 mm
08:50 -3.7 °C -7.1 °C 1006 hPa West 6.4 km/h 14.5 km/h 77% 0 mm
08:55 -3.7 °C -7.1 °C 1006 hPa West 8 km/h 14.5 km/h 77% 0 mm
09:00 -3.6 °C -7.2 °C 1006 hPa West 6.4 km/h 14.5 km/h 76% 0 mm
09:09 -3.5 °C -7.3 °C 1006 hPa WSW 11.3 km/h 14.5 km/h 75% 0 mm
09:14 -3.4 °C -7.4 °C 1006 hPa West 8 km/h 17.7 km/h 74% 0 mm
09:19 -3.4 °C -7.2 °C 1006 hPa West 4.8 km/h 16.1 km/h 75% 0 mm
09:24 -3.4 °C -7.4 °C 1006 hPa West 8 km/h 14.5 km/h 74% 0 mm
09:29 -3.3 °C -7.5 °C 1006.3 hPa WNW 9.7 km/h 20.9 km/h 73% 0 mm
09:34 -3.3 °C -7.4 °C 1006 hPa WNW 4.8 km/h 16.1 km/h 73% 0 mm
09:39 -3.2 °C -7.6 °C 1006 hPa WNW 9.7 km/h 17.7 km/h 72% 0 mm
09:44 -3.2 °C -7.6 °C 1006 hPa West 9.7 km/h 22.5 km/h 72% 0 mm
09:49 -3.2 °C -7.5 °C 1006.3 hPa West 9.7 km/h 22.5 km/h 72% 0 mm
09:55 -3.2 °C -7.5 °C 1006.3 hPa West 9.7 km/h 19.3 km/h 72% 0 mm
10:00 -3.1 °C -7.4 °C 1006.3 hPa West 8 km/h 17.7 km/h 72% 0 mm
10:09 -3 °C -7.5 °C 1006.7 hPa West 9.7 km/h 16.1 km/h 71% 0 mm
10:14 -3 °C -7.9 °C 1006.7 hPa West 9.7 km/h 20.9 km/h 69% 0 mm
10:19 -2.9 °C -7.6 °C 1006.7 hPa West 14.5 km/h 22.5 km/h 70% 0 mm
10:24 -2.9 °C -8 °C 1006.7 hPa West 14.5 km/h 22.5 km/h 68% 0 mm
10:29 -2.9 °C -7.8 °C 1006.7 hPa West 8 km/h 19.3 km/h 69% 0 mm
10:34 -2.9 °C -8 °C 1006.7 hPa West 9.7 km/h 19.3 km/h 68% 0 mm
10:40 -2.9 °C -8.2 °C 1006.7 hPa West 9.7 km/h 16.1 km/h 67% 0 mm
10:45 -2.9 °C -8 °C 1006.7 hPa WSW 12.9 km/h 17.7 km/h 68% 0 mm
10:49 -2.9 °C -8.2 °C 1006.7 hPa West 9.7 km/h 19.3 km/h 67% 0 mm
10:54 -2.8 °C -8.1 °C 1007 hPa West 9.7 km/h 20.9 km/h 67% 0 mm
10:59 -2.9 °C -8.6 °C 1007 hPa West 9.7 km/h 20.9 km/h 65% 0 mm
11:05 -2.8 °C -8.5 °C 1007 hPa West 11.3 km/h 19.3 km/h 65% 0 mm
11:10 -2.8 °C -8.5 °C 1006.7 hPa West 11.3 km/h 29 km/h 65% 0 mm
11:19 -2.7 °C -8.4 °C 1007 hPa West 9.7 km/h 22.5 km/h 65% 0 mm
11:24 -2.6 °C -8.3 °C 1007 hPa WSW 12.9 km/h 19.3 km/h 65% 0 mm
11:29 -2.7 °C -8.3 °C 1007 hPa West 8 km/h 16.1 km/h 65% 0 mm
11:34 -2.6 °C -8.2 °C 1007 hPa West 6.4 km/h 17.7 km/h 65% 0 mm
11:39 -2.4 °C -8.3 °C 1007 hPa WSW 3.2 km/h 12.9 km/h 64% 0 mm
11:44 -2.4 °C -8.3 °C 1007 hPa West 12.9 km/h 24.1 km/h 64% 0 mm
11:49 -2.6 °C -8.7 °C 1006.7 hPa West 9.7 km/h 24.1 km/h 63% 0 mm
11:54 -2.5 °C -8.4 °C 1006.7 hPa West 9.7 km/h 22.5 km/h 64% 0 mm
11:59 -2.4 °C -8.3 °C 1006.7 hPa West 6.4 km/h 14.5 km/h 64% 0 mm
12:04 -2.4 °C -8.1 °C 1006.7 hPa West 8 km/h 12.9 km/h 65% 0 mm
12:10 -2.3 °C -8 °C 1006.7 hPa West 8 km/h 16.1 km/h 65% 0 mm
12:19 -2.2 °C -8.3 °C 1006.7 hPa West 4.8 km/h 17.7 km/h 63% 0 mm
12:24 -2.3 °C -8.4 °C 1006.7 hPa West 9.7 km/h 19.3 km/h 63% 0 mm
12:29 -2.3 °C -8.6 °C 1006.7 hPa WSW 11.3 km/h 20.9 km/h 62% 0 mm
12:34 -2.3 °C -8.6 °C 1006.7 hPa West 4.8 km/h 12.9 km/h 62% 0 mm
12:39 -2.3 °C -8.4 °C 1006.3 hPa WSW 4.8 km/h 14.5 km/h 63% 0 mm
12:44 -2.3 °C -8.2 °C 1006.3 hPa West 9.7 km/h 17.7 km/h 64% 0 mm
12:49 -2.4 °C -8.3 °C 1006.3 hPa West 6.4 km/h 17.7 km/h 64% 0 mm
12:54 -2.4 °C -8.1 °C 1006.3 hPa West 6.4 km/h 12.9 km/h 65% 0 mm
12:59 -2.4 °C -8.1 °C 1006.3 hPa West 6.4 km/h 14.5 km/h 65% 0 mm
13:04 -2.4 °C -8.3 °C 1006.3 hPa West 8 km/h 14.5 km/h 64% 0 mm
13:10 -2.4 °C -8.6 °C 1006.3 hPa WSW 8 km/h 16.1 km/h 63% 0 mm
13:15 -2.4 °C -8.1 °C 1006.3 hPa WSW 6.4 km/h 16.1 km/h 65% 0 mm
13:19 -2.4 °C -8.1 °C 1006.3 hPa WSW 8 km/h 12.9 km/h 65% 0 mm
13:24 -2.4 °C -8.5 °C 1006.3 hPa WSW 4.8 km/h 16.1 km/h 63% 0 mm
13:29 -2.4 °C -8.5 °C 1006.3 hPa WNW 9.7 km/h 14.5 km/h 63% 0 mm
13:34 -2.4 °C -8.5 °C 1006 hPa SW 11.3 km/h 14.5 km/h 63% 0 mm
13:39 -2.4 °C -8.5 °C 1006.3 hPa WNW 12.9 km/h 22.5 km/h 63% 0 mm
13:44 -2.4 °C -8.5 °C 1006.3 hPa West 9.7 km/h 17.7 km/h 63% 0 mm
13:49 -2.5 °C -8.4 °C 1006.3 hPa WNW 11.3 km/h 19.3 km/h 64% 0 mm
13:54 -2.6 °C -8.7 °C 1006.3 hPa WNW 11.3 km/h 19.3 km/h 63% 0 mm
13:59 -2.6 °C -8.7 °C 1006.3 hPa West 9.7 km/h 19.3 km/h 63% 0 mm
14:04 -2.4 °C -8.6 °C 1006.3 hPa West 9.7 km/h 17.7 km/h 63% 0 mm
14:09 -2.4 °C -8.7 °C 1006.3 hPa West 9.7 km/h 19.3 km/h 62% 0 mm
14:15 -2.3 °C -8.8 °C 1006.3 hPa West 12.9 km/h 22.5 km/h 61% 0 mm
14:20 -2.3 °C -8.8 °C 1006.3 hPa West 6.4 km/h 22.5 km/h 61% 0 mm
14:29 -2.3 °C -9 °C 1006.3 hPa WNW 12.9 km/h 25.7 km/h 60% 0 mm
14:34 -2.3 °C -8.8 °C 1006.3 hPa WSW 8 km/h 17.7 km/h 61% 0 mm
14:39 -2.3 °C -8.8 °C 1006.3 hPa WSW 8 km/h 14.5 km/h 61% 0 mm
14:44 -2.3 °C -8.8 °C 1006.3 hPa West 8 km/h 16.1 km/h 61% 0 mm
14:49 -2.4 °C -8.9 °C 1006.3 hPa WNW 11.3 km/h 22.5 km/h 61% 0 mm
14:54 -2.5 °C -8.8 °C 1006.7 hPa West 9.7 km/h 22.5 km/h 62% 0 mm
15:00 -2.5 °C -8.6 °C 1006.7 hPa WNW 8 km/h 16.1 km/h 63% 0 mm
15:04 -2.7 °C -8.9 °C 1006.7 hPa WNW 12.9 km/h 19.3 km/h 62% 0 mm
15:09 -2.8 °C -8.8 °C 1006.7 hPa West 12.9 km/h 22.5 km/h 63% 0 mm
15:14 -2.8 °C -8.7 °C 1006.7 hPa West 9.7 km/h 16.1 km/h 64% 0 mm
15:19 -2.7 °C -8.4 °C 1006.7 hPa WSW 6.4 km/h 12.9 km/h 65% 0 mm
15:24 -2.7 °C -8.7 °C 1006.7 hPa West 8 km/h 16.1 km/h 63% 0 mm
15:29 -2.6 °C -8.9 °C 1006.7 hPa West 8 km/h 16.1 km/h 62% 0 mm
15:39 -2.6 °C -9.7 °C 1007 hPa West 9.7 km/h 17.7 km/h 58% 0 mm
15:45 -2.7 °C -9.8 °C 1007 hPa WNW 4.8 km/h 17.7 km/h 58% 0 mm
15:50 -2.6 °C -9.3 °C 1007 hPa West 8 km/h 22.5 km/h 60% 0 mm
15:54 -2.7 °C -9.4 °C 1007 hPa WSW 1.6 km/h 16.1 km/h 60% 0 mm
15:59 -2.7 °C -9.4 °C 1007 hPa WSW 6.4 km/h 19.3 km/h 60% 0 mm
16:04 -2.7 °C -9.4 °C 1007 hPa WSW 9.7 km/h 14.5 km/h 60% 0 mm
16:14 -2.7 °C -9.6 °C 1007.3 hPa WSW 4.8 km/h 19.3 km/h 59% 0 mm
16:20 -2.7 °C -9.4 °C 1007.3 hPa West 8 km/h 19.3 km/h 60% 0 mm
16:24 -2.7 °C -9.4 °C 1007.3 hPa West 8 km/h 14.5 km/h 60% 0 mm
16:29 -2.7 °C -9.6 °C 1007.3 hPa West 9.7 km/h 20.9 km/h 59% 0 mm
16:34 -2.8 °C -9.7 °C 1007.3 hPa West 9.7 km/h 20.9 km/h 59% 0 mm
16:40 -2.8 °C -9.7 °C 1007.7 hPa West 8 km/h 19.3 km/h 59% 0 mm
16:44 -2.8 °C -9.7 °C 1007.7 hPa West 8 km/h 19.3 km/h 59% 0 mm
16:49 -2.8 °C -9.7 °C 1007.7 hPa WNW 4.8 km/h 16.1 km/h 59% 0 mm
16:54 -2.9 °C -9.6 °C 1007.7 hPa West 8 km/h 16.1 km/h 60% 0 mm
16:59 -2.9 °C -9.6 °C 1007.7 hPa WSW 3.2 km/h 17.7 km/h 60% 0 mm
17:04 -3 °C -9.5 °C 1007.7 hPa NW 6.4 km/h 16.1 km/h 61% 0 mm
17:09 -3.1 °C -9.3 °C 1008 hPa WNW 9.7 km/h 19.3 km/h 62% 0 mm
17:14 -3.1 °C -9.2 °C 1008 hPa WNW 11.3 km/h 19.3 km/h 63% 0 mm
17:19 -3.1 °C -8.9 °C 1008 hPa West 9.7 km/h 14.5 km/h 64% 0 mm
17:24 -3.2 °C -8.6 °C 1008 hPa WNW 8 km/h 14.5 km/h 66% 0 mm
17:29 -3.2 °C -8.5 °C 1008 hPa WNW 6.4 km/h 14.5 km/h 67% 0 mm
17:34 -3.3 °C -8.3 °C 1008 hPa WNW 6.4 km/h 12.9 km/h 68% 0 mm
17:39 -3.3 °C -8.2 °C 1008 hPa WNW 4.8 km/h 12.9 km/h 69% 0 mm
17:44 -3.4 °C -7.9 °C 1008 hPa NW 6.4 km/h 12.9 km/h 71% 0 mm
17:49 -3.5 °C -7.8 °C 1008 hPa WNW 4.8 km/h 12.9 km/h 72% 0 mm
17:54 -3.6 °C -7.9 °C 1008 hPa WNW 6.4 km/h 14.5 km/h 72% 0 mm
17:59 -3.6 °C -7.9 °C 1008.4 hPa West 4.8 km/h 12.9 km/h 72% 0 mm
18:04 -3.7 °C -8 °C 1008.4 hPa West 12.9 km/h 12.9 km/h 72% 0 mm
18:09 -3.7 °C -8.1 °C 1008.4 hPa WSW 6.4 km/h 14.5 km/h 72% 0 mm
18:14 -3.7 °C -7.8 °C 1008 hPa WNW 8 km/h 17.7 km/h 73% 0 mm
18:19 -3.8 °C -7.9 °C 1008 hPa WNW 3.2 km/h 14.5 km/h 73% 0 mm
18:24 -3.8 °C -7.9 °C 1008.4 hPa West 4.8 km/h 12.9 km/h 73% 0 mm
18:29 -3.8 °C -7.9 °C 1008.4 hPa West 8 km/h 16.1 km/h 73% 0 mm
18:34 -3.9 °C -8 °C 1008.4 hPa West 8 km/h 16.1 km/h 73% 0 mm
18:39 -3.9 °C -8 °C 1008.4 hPa West 8 km/h 14.5 km/h 73% 0 mm
18:44 -3.9 °C -8 °C 1008.4 hPa West 8 km/h 14.5 km/h 73% 0 mm
18:49 -3.9 °C -8 °C 1008.4 hPa West 11.3 km/h 12.9 km/h 73% 0 mm
18:54 -3.9 °C -8 °C 1008.4 hPa WNW 12.9 km/h 12.9 km/h 73% 0 mm
18:59 -3.8 °C -8.2 °C 1008.4 hPa West 6.4 km/h 14.5 km/h 72% 0 mm
19:04 -3.8 °C -8.2 °C 1008.7 hPa West 8 km/h 14.5 km/h 72% 0 mm
19:14 -3.8 °C -7.9 °C 1008.7 hPa West 11.3 km/h 14.5 km/h 73% 0 mm
19:19 -3.8 °C -7.9 °C 1008.7 hPa WNW 4.8 km/h 16.1 km/h 73% 0 mm
19:24 -3.8 °C -7.9 °C 1008.7 hPa NW 9.7 km/h 12.9 km/h 73% 0 mm
19:29 -3.8 °C -7.9 °C 1008.7 hPa West 8 km/h 17.7 km/h 73% 0 mm
19:34 -3.8 °C -7.9 °C 1008.7 hPa West 8 km/h 17.7 km/h 73% 0 mm
19:39 -3.8 °C -7.9 °C 1008.7 hPa West 6.4 km/h 14.5 km/h 73% 0 mm
19:44 -3.9 °C -8.2 °C 1008.4 hPa WNW 8 km/h 17.7 km/h 72% 0 mm
19:49 -3.9 °C -8.4 °C 1008.4 hPa West 4.8 km/h 16.1 km/h 71% 0 mm
19:59 -4.1 °C -8.3 °C 1008.7 hPa NW 4.8 km/h 14.5 km/h 72% 0 mm
20:04 -4.1 °C -8.2 °C 1008.4 hPa NW 6.4 km/h 14.5 km/h 73% 0 mm
20:09 -4.1 °C -8.2 °C 1008.4 hPa West 9.7 km/h 14.5 km/h 73% 0 mm
20:14 -4.2 °C -8.3 °C 1008.4 hPa WNW 6.4 km/h 14.5 km/h 73% 0 mm
20:19 -4.2 °C -8.3 °C 1008.4 hPa West 1.6 km/h 12.9 km/h 73% 0 mm
20:24 -4.3 °C -8.4 °C 1008.4 hPa WNW 4.8 km/h 11.3 km/h 73% 0 mm
20:29 -4.4 °C -8.6 °C 1008.4 hPa WNW 3.2 km/h 11.3 km/h 73% 0 mm
20:34 -4.6 °C -8.6 °C 1008.4 hPa West 8 km/h 9.7 km/h 74% 0 mm
20:39 -4.7 °C -8.7 °C 1008.4 hPa WNW 3.2 km/h 9.7 km/h 74% 0 mm
20:44 -4.8 °C -8.8 °C 1008.4 hPa WNW 3.2 km/h 8 km/h 74% 0 mm
20:49 -4.9 °C -8.9 °C 1008.4 hPa West 3.2 km/h 6.4 km/h 74% 0 mm
20:54 -5.1 °C -9 °C 1008.4 hPa West 3.2 km/h 8 km/h 74% 0 mm
20:59 -5.2 °C -8.9 °C 1008.4 hPa WNW 1.6 km/h 4.8 km/h 75% 0 mm
21:04 -5.3 °C -8.9 °C 1008.4 hPa West 1.6 km/h 6.4 km/h 76% 0 mm
21:09 -5.4 °C -9 °C 1008.4 hPa West 1.6 km/h 6.4 km/h 76% 0 mm
21:14 -5.5 °C -9.1 °C 1008.4 hPa Calm   3.2 km/h 76% 0 mm
21:19 -5.6 °C -9.2 °C 1008.4 hPa Calm     76% 0 mm
21:24 -5.7 °C -9.4 °C 1008.4 hPa Calm     75% 0 mm
21:34 -6.2 °C -10.1 °C 1008.7 hPa Calm     74% 0 mm
21:39 -6.3 °C -10.2 °C 1008.7 hPa Calm     74% 0 mm
21:44 -6.5 °C -10.4 °C 1008.7 hPa Calm     74% 0 mm
21:49 -6.7 °C -10.2 °C 1008.7 hPa Calm   3.2 km/h 76% 0 mm
21:54 -6.8 °C -10.2 °C 1008.7 hPa WNW 1.6 km/h 4.8 km/h 77% 0 mm
21:59 -6.9 °C -10.1 °C 1008.4 hPa WNW 1.6 km/h 4.8 km/h 78% 0 mm
22:04 -7.1 °C -10.1 °C 1008.4 hPa Calm     79% 0 mm
22:09 -7.1 °C -10.1 °C 1008.4 hPa Calm     79% 0 mm
22:19 -7.3 °C -10.3 °C 1008.7 hPa Calm     79% 0 mm
22:24 -7.3 °C -10.2 °C 1008.7 hPa Calm     80% 0 mm
22:30 -7.4 °C -10.3 °C 1008.7 hPa Calm     80% 0 mm
22:34 -7.6 °C -10.4 °C 1008.7 hPa Calm     80% 0 mm
22:39 -7.6 °C -10.3 °C 1008.7 hPa Calm   3.2 km/h 81% 0 mm
22:44 -7.7 °C -10.2 °C 1008.7 hPa Calm   4.8 km/h 82% 0 mm
22:49 -7.7 °C -10.1 °C 1008.7 hPa WNW 1.6 km/h 4.8 km/h 83% 0 mm
22:54 -7.7 °C -10.1 °C 1008.7 hPa WNW 1.6 km/h 3.2 km/h 83% 0 mm
22:59 -7.6 °C -9.8 °C 1008.7 hPa Calm   3.2 km/h 84% 0 mm
23:04 -7.6 °C -9.8 °C 1008.7 hPa Calm   3.2 km/h 84% 0 mm
23:09 -7.6 °C -9.8 °C 1008.7 hPa Calm   4.8 km/h 84% 0 mm
23:14 -7.4 °C -9.6 °C 1008.7 hPa NNW 4.8 km/h 6.4 km/h 85% 0 mm
23:19 -7.2 °C -9.2 °C 1009 hPa NNW 6.4 km/h 6.4 km/h 86% 0 mm
23:24 -6.9 °C -8.9 °C 1009 hPa NW 3.2 km/h 8 km/h 86% 0 mm
23:29 -6.7 °C -8.6 °C 1009 hPa NW 4.8 km/h 9.7 km/h 86% 0 mm
23:34 -6.4 °C -8.4 °C 1009 hPa NNW 3.2 km/h 6.4 km/h 86% 0 mm
23:39 -6.2 °C -8.3 °C 1009 hPa NNW 3.2 km/h 9.7 km/h 85% 0 mm
23:44 -6.1 °C -8.2 °C 1009 hPa NNW 4.8 km/h 9.7 km/h 85% 0 mm
23:49 -5.9 °C -8 °C 1009 hPa NW 3.2 km/h 6.4 km/h 85% 0 mm
23:54 -5.8 °C -8.1 °C 1009 hPa NNW 3.2 km/h 6.4 km/h 84% 0 mm
23:59 -5.8 °C -8.1 °C 1008.7 hPa NNW 3.2 km/h 8 km/h 84% 0 mm
Buffalo, New York, USA
Compliments of Weather Underground - 2.25 mb